www.pogodaiklimat.ru

Погода и климат >> Архив погоды >> Россия >> Ненецкий АО >> Мыс Константиновский


ПОГОДА на Мысе Константиновском

  • Прогноз погоды на Мысе Константиновском
  • Монитор погоды на Мысе Константиновском

АРХИВ ПОГОДЫ на Мысе Константиновском

Время (UTC), дата Ветер
(напр.,м/с)
 
Видим.   Явления Облачность Т
(С)
Тd
(С)
f
(%)
Тe
(С)
Тes
(С)
Комфортность P
(гПа)
Po
(гПа)
Тmin
(С)
Tmax
(С)
R
(мм)
R24
(мм)
S
(см)
09 15.09 В 9-13
{17}
10 км {ливн. осадки} 10/10 300 м
[Cb cap]
+8.8 +7.8 93 +4 +4 992.6 991.8
12 15.09 ЮВ 7
{13}
10 км {ливн. осадки} 8/8 300 м
[Cb cap]
+11.3 +7.6 78 +8 +8 992.4 991.6
15 15.09 ЮВ 5
{10}
10 км {ливн. осадки} 9/8 300 м
[Cb cap Ac trans]
+8.7 +6.5 86 +5 +5 992.2 991.4 +12.2 4
18 15.09 ЮВ 7 10 км {ливн. осадки} 9/9 600 м
[Sc]
+8.1 +5.9 86 +4 +4 991.3 990.5
21 15.09 ЮВ 7
{10}
10 км 9/8 600 м
[Sc Ac trans]
+7.6 +5.8 88 +3 +3 990.2 989.4
00 16.09 В 7 10 км слаб. ливневой дождь 9/9 300 м
[Cb cap]
+6.9 +5.8 93 +2 +2 989.7 988.9
03 16.09 В 7
{11}
10 км {ливн. осадки} 9/9 300 м
[Cb cap]
+6.5 +5.1 91 +1 +1 989.0 988.2 +6.3 0.3
06 16.09 ЮВ 8-10
{11}
10 км {ливн. осадки} 8/6 300 м
[Cb cap Cs]
+8.2 +5.5 83 +4 +4 988.4 987.6
09 16.09 В 8-10
{11}
10 км 9/6 300 м
[Cb cap Cs]
+9.2 +5.2 76 +5 +5 988.3 987.5
12 16.09 В 7-10
{12}
10 км 9/9 300 м
[Cb cap]
+8.5 +5.6 82 +4 +4 988.9 988.1
15 16.09 В 7
{11}
10 км {ливн. осадки} 9/8 300 м
[Cb cap Ac trans]
+7.7 +6.2 90 +3 +3 989.2 988.4 +9.3 0.6
18 16.09 В 5 10 км {ливн. осадки} 9/9 300 м
[Cb cap]
+6.6 +5.5 93 +2 +2 989.5 988.7
21 16.09 В 3 10 км слаб. ливневой дождь 9/9 300 м
[Cb cap]
+5.3 +4.8 97 +2 +2 989.3 988.5
00 17.09 В 1 10 км слаб. ливневой дождь 9/9 300 м
[Cb cap]
+5.1 +4.6 97 +4 +4 989.2 988.4
03 17.09 Ю 1 10 км слаб. ливневой дождь 9/9 300 м
[Cb cap]
+4.7 +4.2 97 +3 +3 989.1 988.3 +4.5 2
06 17.09 ЮЗ 1 10 км {ливн. осадки} 9/9 300 м
[Cb cap]
+6.7 +4.9 88 +6 +6 989.3 988.5
09 17.09 З 1 10 км 8/5 300 м
[Cb cap Ac trans]
+7.7 +5.2 84 +7 +8 989.7 988.9
12 17.09 СВ 3 10 км 9/9 300 м
[Cb cap Ac trans]
+7.8 +5.6 86 +5 +5 990.6 989.8
15 17.09 В 2 10 км 9/9 300 м
[Cb cap]
+7.2 +4.7 84 +5 +5 991.0 990.2 +7.9 0.0
18 17.09 ЮЗ 1 20 км 9/9 300 м
[Cb cap]
+6.2 +4.6 89 +5 +5 991.0 990.2
21 17.09 С 5 10 км 9/9 600 м
[Sc]
+6.7 +4.6 86 +3 +3 990.9 990.1
00 18.09 С 5 10 км 9/9 600 м
[Sc]
+6.2 +3.9 85 +2 +2 991.0 990.2
03 18.09 СЗ 6 10 км слаб. ливневой дождь 10/10 300 м
[Cb cap]
+5.6 +3.7 88 +1 +1 991.1 990.3 +5.5 1
06 18.09 С 5 10 км {ливн. осадки} 10/10 300 м
[Cb cap]
+5.4 +3.2 86 +1 +1 991.1 990.3
09 18.09 СЗ 5 10 км 10/10 300 м
[Sc]
+6.4 +2.0 73 +2 +2 992.3 991.5
12 18.09 СЗ 4 10 км 9/8 300 м
[Sc Ac trans]
+6.8 +1.3 68 +3 +4 993.5 992.7
15 18.09 З 6 10 км 8/8 600 м
[Sc]
+6.8 +1.6 69 +3 +3 994.1 993.3 +7.2 0.3
18 18.09 ЮЗ 2 10 км 8/8 300 м
[Sc]
+2.4 +0.8 89 -1 -1 994.6 993.8
21 18.09 ЮЗ 3 10 км 8/8 300 м
[Cb cap]
+2.4 +1.6 94 -2 -2 994.8 994.0
00 19.09 З 6 10 км 6/6 300 м
[Sc]
+5.1 +2.7 84 0 0 995.5 994.7
03 19.09 З 5 10 км {ливн. осадки} 8/8 300 м
[Cb cap]
+6.0 +1.5 73 +2 +2 995.8 995.0 +0.7 0.7
06 19.09 З 6 10 км {ливн. осадки} 8/8 300 м
[Cb cap]
+6.2 +2.8 79 +2 +2 996.4 995.6
09 19.09 З 6 10 км 8/8 300 м
[Sc]
+6.8 +2.2 72 +2 +3 997.0 996.2
12 19.09 СЗ 5 10 км 6/6 300 м
[Sc]
+6.8 +1.6 69 +3 +3 997.9 997.1
15 19.09 СЗ 5 10 км 6/6 300 м
[Sc]
+6.3 +1.3 70 +2 +2 998.2 997.4 +7.2
18 19.09 З 4
{10}
10 км 6/6 600 м
[Sc]
+6.7 +2.1 72 +3 +3 998.1 997.3
21 19.09 З 4 10 км 6/6 600 м
[Sc]
+5.5 +0.9 72 +2 +2 997.6 996.8
00 20.09 З 8-10
{10}
10 км слаб. ливневой дождь 9/9 300 м
[Cb cap]
+5.0 +2.5 84 -1 -1 997.8 997.0
03 20.09 З 5
{10}
10 км {ливн. осадки} 8/8 300 м
[Cb cap]
+5.3 +0.7 72 +1 +1 997.8 997.0 +1.1 0.4
06 20.09 З 7 10 км {ливн. осадки} 8/8 300 м
[Sc]
+5.5 +1.5 75 0 0 998.0 997.2
09 20.09 СЗ 7-10
{11}
10 км слаб. ливневой дождь 9/9 300 м
[Cb cap]
+5.3 +1.8 78 0 0 998.7 997.9
12 20.09 З 8
{11}
10 км {ливн. осадки} 8/8 300 м
[Cb cap]
+6.3 +1.3 70 +1 +1 999.8 999.0
15 20.09 З 9-11
{12}
10 км 6/6 300 м
[Sc]
+6.0 +0.6 68 +1 +1 1000.1 999.3 +6.5 0.3
18 20.09 З 8-10
{11}
10 км 6/6 300 м
[Sc]
+5.4 +0.8 72 -0 -0 1000.3 999.5
21 20.09 З 7
{11}
10 км 4/4 600 м
[Sc]
+4.5 +1.2 79 -1 -1 1000.1 999.3
00 21.09 ЮЗ 5 10 км 6/6 300 м
[Sc]
+0.4 -0.2 96 -6 -6 1000.0 999.2
03 21.09 Ю 5 10 км 4/4 300 м
[Sc]
-1.8 -2.1 98 -9 -9 999.9 999.1 -1.9
06 21.09 ЮЗ 7 200 м туман ?/? +0.7 +0.7 100 -6 -6 1000.0 999.2
09 21.09 З 7 10 км {туман} 9/9 300 м
[Sc]
+3.6 +0.2 78 -2 -2 1000.5 999.7
12 21.09 ЮЗ 6 10 км {туман} 9/9 300 м
[Sc]
+3.6 +0.7 81 -2 -2 1001.1 1000.3
15 21.09 ЮЗ 6 10 км 4/4 300 м
[Sc]
+0.2 -0.6 94 -7 -7 1001.5 1000.7 +4.5
18 21.09 Ю 5 10 км 10/10 300 м
[Sc]
+0.5 -0.6 92 -6 -6 1001.7 1000.9
21 21.09 Ю 4 10 км 10/10 300 м
[Sc]
+0.1 -0.8 94 -6 -6 1001.4 1000.6
00 22.09 ЮЗ 3 10 км 10/10 600 м
[Sc]
+0.4 -0.7 92 -4 -4 1001.2 1000.4
03 22.09 Ю 4 10 км 10/10 600 м
[Sc]
0.0 -0.6 96 -6 -6 1001.3 1000.5 -0.1
06 22.09 ЮЗ 2 10 км 10/10 600 м
[Sc]
+1.1 -0.3 90 -2 -2 1001.8 1001.0

 

Местоположение метеостанции Мыс Константиновский (Ненецкий АО, Россия): широта 68.55 долгота 55.50 высота над уровнем моря 7 м.

В архиве по умолчанию представлена погода на Мысе Константиновском за последнюю неделю. Архивные данные за месяц целиком и за предыдущие месяцы, начиная с января 2011 года, Вы можете получить, выбрав интересующий диапазон дат из раскрывающегося списка и нажав кнопку "Ввод!".


*Определитесь, кто Вы:
робот инопланетянин человек

Внимание! Время в таблицах - всемирное. Для получения местного времени необходимо прибавить поправку, которая равна 3 ч.

Смотрите также архив погоды в соседних городах и на ближайших метеорологических станциях:

Погода в Ходоварихе (Ненецкий АО, Россия) (82 км)
Погода в Варандее (Ненецкий АО, Россия) (106 км)
Погода в Нарьян-Маре (Ненецкий АО, Россия) (145 км)
Погода в Хорей-Вере (Ненецкий АО, Россия) (163 км)
Погода в Сенгейском Шаре (Ненецкий АО, Россия) (173 км)
Погода на Мысе Белый Нос (Ненецкий АО, Россия) (220 км)
Погода в Коткино (Ненецкий АО, Россия) (250 км)
Погода в Бугрино (Ненецкий АО, Россия) (251 км)
Погода в Имени Федорова (Ненецкий АО, Россия) (253 км)
Погода в Харуте (Ненецкий АО, Россия) (254 км)

Пояснения к столбцам:

Ветер - указаны скорость ветра в м/с - средняя за 10 мин, порывы в срок и между сроками (в фигурных скобках) и направление, откуда дует ветер: С - северный, СВ - северо-восточный, В - восточный, ЮВ - юго-восточный, Ю - южный, ЮЗ - юго-западный, З - западный, СЗ - северо-западный.
Видимость - горизонтальная дальность видимости в метрах или километрах. При видимости от 1 до 10 км при отсутствии осадков обычно наблюдается дымка, при ухудшении видимости до 1 км и менее - туман. В сухую погоду видимость может ухудшаться дымом, пылью или мглою.
Явления - указаны атмосферные явления, наблюдавшиеся в срок или в последний час перед сроком; фигурными скобками обозначены явления, наблюдавшиеся между сроками (за 1-3 часа до срока); квадратными скобками обозначены град или гололедные отложения с указанием их диаметра в мм.
Облачность - указаны через наклонную черту общая и нижняя облачность в баллах и высота нижней границы облаков в метрах; квадратными скобками обозначены формы облаков: Ci - перистые, Cs - перисто-слоистые, Cc - перисто-кучевые, Ac - высококучевые, As - высокослоистые, Sc - слоисто-кучевые, Ns - слоисто-дождевые, Cu - кучевые, Cb - кучево-дождевые. Подробнее классификацию облаков см. в Атласе облаков (PDF).
T - Температура воздуха - температура, измеренная на высоте 2 м над землей.
Td - Температура точки росы - температура, при понижении до которой содержащийся в воздухе водяной пар достигнет насыщения.
f - Относительная влажность воздуха - влажноcть воздуха, измеренная на высоте 2 м над землей.
Te - Эффективная температура - температура, которую ощущает одетый по сезону человек в тени. Характеристика душности погоды. При расчете учитывается влияние влажности воздуха и скорости ветра на теплоощущения человека.
Tes - Эффективная температура на солнце - температура, которую ощущает человек, с поправкой на солнечный нагрев. Характеристика знойности погоды. Зависит от высоты солнца над горизонтом, облачности и скорости ветра. Ночью, в пасмурную погоду, а также при ветре 12 м/с и более поправка равна нулю.
P - Атмосферное давление - приведенное к уровню моря атмосферное давление.
Po - Атмосферное давление - измеренное на уровне метеостанции атмосферное давление.
Tmin - Минимальная температура - минимум температуры воздуха на высоте 2 м над землей.
Tmax - Максимальная температура - максимум температуры воздуха на высоте 2 м над землей.
R - Количество осадков - Количество выпавших осадков за период времени, мм. При наведении курсора мыши на число - период времени, за который выпало указанное количество осадков.
R24 - Количество осадков - Количество выпавших осадков за 24 часа, мм.
S - Снежный покров - Высота снежного покрова, см. При наведении курсора мыши на число - состояние снежного покрова и степень покрытия местности в баллах.